Weather History for Fort Sill, OK

Change the Weather History Date:

Wednesday, February 20, 2013

  Actual Average Record
Temperature  
Mean Temperature 40 °F -  
Max Temperature 46 °F 62 °F 85 °F (1976)
Min Temperature 35 °F 33 °F 9 °F (1978)
Degree Days  
Heating Degree Days 24    
Moisture  
Dew Point 35 °F    
Average Humidity 87    
Maximum Humidity 100    
Minimum Humidity 43    
Precipitation  
Precipitation 0.44 in - - ()
Sea Level Pressure  
Sea Level Pressure 30.03 in    
Wind  
Wind Speed 14 mph (ESE)    
Max Wind Speed 24 mph    
Max Gust Speed 36 mph    
Visibility 9 miles    
Events Rain    
Averages and records for this station are not official NWS values.
T = Trace of Precipitation, MM = Missing Value Source: NWS Daily Summary

Daily Weather History Graph

Daily Weather History Graph

Search for Another Location

Airport:

Trip Planner

Search our weather history database for the weather conditions in past years. The results will help you decide how hot, cold, wet, or windy it might be!

Date:

Astronomy

Feb. 20, 2013 Rise Set
Actual Time 7:13 AM CST 6:21 PM CST
Civil Twilight 6:47 AM CST 6:47 PM CST
Nautical Twilight 6:18 AM CST 7:16 PM CST
Astronomical Twilight 5:49 AM CST 7:45 PM CST
Moon 1:51 PM CST (2/20) 3:27 AM CST (2/20)
Length of Visible Light 11h 59m
Length of Day
11h 08m
Waxing Gibbous, 76% of the Moon is Illuminated
Feb 20
Waxing Gibbous
Feb 25
Full
Mar 4
Last Quarter
Mar 11
New
Mar 19
First Quarter

Hourly Weather History & Observations

Time (CST) Temp. Windchill Dew Point Humidity Pressure Visibility Wind Dir Wind Speed Gust Speed Precip Events Conditions
12:12 AM 46.4 °F 41.9 °F 24.8 °F 43% 30.14 in 10.0 mi SE 9.2 mph - N/A   Light Drizzle
12:20 AM 46.4 °F 42.9 °F 26.6 °F 46% 30.14 in 10.0 mi SE 6.9 mph - N/A   Mostly Cloudy
12:21 AM 46.4 °F 42.9 °F 26.6 °F 46% 30.14 in 10.0 mi SE 6.9 mph - N/A   Light Drizzle
12:22 AM 46.4 °F 42.9 °F 26.6 °F 46% 30.14 in 10.0 mi SE 6.9 mph - N/A   Mostly Cloudy
12:28 AM 46.4 °F 42.9 °F 26.6 °F 46% 30.14 in 10.0 mi SSE 6.9 mph - N/A   Light Drizzle
12:50 AM 46.4 °F 41.5 °F 28.4 °F 50% 30.15 in 10.0 mi SSE 10.4 mph - N/A   Mostly Cloudy
12:53 AM 46.4 °F 41.5 °F 28.4 °F 50% 30.15 in 10.0 mi SSE 10.4 mph - N/A Rain Light Rain
12:55 AM 45.7 °F 41.0 °F 28.9 °F 52% 30.15 in 10.0 mi South 9.2 mph - 0.00 in Rain Light Rain
1:55 AM 43.7 °F 36.0 °F 34.2 °F 69% 30.12 in 10.0 mi SE 17.3 mph 29.9 mph 0.01 in Rain Light Rain
2:55 AM 41.2 °F 33.7 °F 36.3 °F 83% 30.15 in 10.0 mi SSE 13.8 mph - 0.02 in Rain Light Rain
3:43 AM 41.0 °F 32.8 °F 37.4 °F 87% 30.13 in 10.0 mi SE 16.1 mph - N/A Rain Light Rain
3:55 AM 40.3 °F 31.3 °F 37.2 °F 89% 30.12 in 7.0 mi SE 18.4 mph - 0.07 in   Overcast
4:05 AM 39.2 °F 30.2 °F 37.4 °F 93% 30.12 in 7.0 mi SE 17.3 mph 23.0 mph N/A Rain Light Rain
4:20 AM 39.2 °F 31.2 °F 37.4 °F 93% 30.11 in 10.0 mi ESE 13.8 mph - N/A Rain Light Rain
4:23 AM 39.2 °F 30.5 °F 37.4 °F 93% 30.10 in 10.0 mi ESE 16.1 mph - N/A Rain Light Rain
4:35 AM 39.2 °F 30.8 °F 37.4 °F 93% 30.10 in 10.0 mi SE 15.0 mph - N/A Rain Light Rain
4:55 AM 39.7 °F 30.9 °F 37.4 °F 91% 30.10 in 8.0 mi ESE 17.3 mph - 0.03 in Rain Light Rain
4:56 AM 39.2 °F 30.5 °F 37.4 °F 93% 30.10 in 8.0 mi ESE 16.1 mph 24.2 mph N/A Rain Light Rain
5:02 AM 39.2 °F 30.5 °F 37.4 °F 93% 30.10 in 7.0 mi ESE 16.1 mph - N/A Rain Light Rain
5:03 AM 39.2 °F 30.5 °F 37.4 °F 93% 30.10 in 7.0 mi ESE 16.1 mph - N/A Rain Light Rain
5:04 AM 39.2 °F 29.8 °F 37.4 °F 93% 30.10 in 8.0 mi SE 18.4 mph - N/A Rain Light Rain
5:06 AM 39.2 °F 30.5 °F 37.4 °F 93% 30.10 in 8.0 mi SE 16.1 mph - N/A Rain Light Rain
5:10 AM 39.2 °F 30.8 °F 37.4 °F 93% 30.11 in 9.0 mi SE 15.0 mph - N/A Rain Light Rain
5:23 AM 39.2 °F 31.6 °F 37.4 °F 93% 30.12 in 10.0 mi SE 12.7 mph - N/A Rain Light Rain
5:46 AM 39.2 °F 31.2 °F 37.4 °F 93% 30.12 in 9.0 mi ESE 13.8 mph 23.0 mph N/A Rain Light Rain
5:47 AM 39.2 °F 31.2 °F 37.4 °F 93% 30.12 in 9.0 mi ESE 13.8 mph 23.0 mph N/A Rain Light Rain
5:55 AM 38.5 °F 29.9 °F 36.9 °F 94% 30.12 in 10.0 mi SE 15.0 mph - 0.04 in Rain Light Rain
6:19 AM 37.4 °F 28.5 °F 37.4 °F 100% 30.11 in 7.0 mi SE 15.0 mph - N/A Rain Light Rain
6:53 AM 37.4 °F 28.5 °F 37.4 °F 100% 30.11 in 7.0 mi ESE 15.0 mph - N/A Rain Light Rain
6:55 AM 37.9 °F 28.9 °F 37.0 °F 97% 30.11 in 7.0 mi ESE 16.1 mph - 0.09 in Rain Light Rain
7:26 AM 39.2 °F 31.2 °F 37.4 °F 93% 30.10 in 5.0 mi SE 13.8 mph - N/A Rain Light Rain
7:55 AM 38.3 °F 30.1 °F 37.8 °F 98% 30.11 in 8.0 mi SE 13.8 mph - 0.09 in Rain Light Rain
7:57 AM 39.2 °F 31.6 °F 37.4 °F 93% 30.12 in 9.0 mi SE 12.7 mph - N/A Rain Light Rain
8:21 AM 39.2 °F 29.8 °F 37.4 °F 93% 30.11 in 8.0 mi SE 18.4 mph - N/A Rain Light Rain
8:55 AM 38.7 °F 31.4 °F 38.1 °F 98% 30.12 in 10.0 mi SE 11.5 mph - 0.03 in Rain Light Rain
9:01 AM 39.2 °F 31.6 °F 37.4 °F 93% 30.12 in 10.0 mi SE 12.7 mph - N/A Rain Light Rain
9:05 AM 39.2 °F 31.2 °F 39.2 °F 100% 30.12 in 10.0 mi SE 13.8 mph - N/A   Mostly Cloudy
9:07 AM 39.2 °F 32.0 °F 39.2 °F 100% 30.12 in 10.0 mi SE 11.5 mph - N/A Rain Light Rain
9:40 AM 39.2 °F 30.5 °F 37.4 °F 93% 30.10 in 10.0 mi ESE 16.1 mph - N/A Rain Light Rain
9:55 AM 38.8 °F 30.0 °F 37.8 °F 96% 30.09 in 10.0 mi ESE 16.1 mph - 0.00 in   Light Drizzle
10:21 AM 39.2 °F 30.5 °F 37.4 °F 93% 30.09 in 10.0 mi SE 16.1 mph - N/A   Overcast
10:29 AM 37.4 °F 27.5 °F 37.4 °F 100% 30.09 in 9.0 mi SE 18.4 mph - N/A Rain Light Rain
10:38 AM 37.4 °F 28.9 °F 37.4 °F 100% 30.08 in 10.0 mi East 13.8 mph - N/A   Light Drizzle
10:45 AM 39.2 °F 31.6 °F 37.4 °F 93% 30.08 in 10.0 mi ESE 12.7 mph - N/A Rain Light Rain
10:52 AM 39.2 °F 28.5 °F 39.2 °F 100% 30.07 in 10.0 mi SE 24.2 mph 35.7 mph N/A   Light Drizzle
10:55 AM 39.6 °F 29.5 °F 38.3 °F 95% 30.08 in 10.0 mi SE 21.9 mph 35.7 mph 0.02 in   Light Drizzle
11:03 AM 39.2 °F 28.5 °F 37.4 °F 93% 30.07 in 10.0 mi SE 24.2 mph 29.9 mph N/A   Overcast
11:23 AM 39.2 °F 29.0 °F 37.4 °F 93% 30.07 in 10.0 mi ESE 21.9 mph 28.8 mph N/A   Light Drizzle
11:48 AM 39.2 °F 30.5 °F 37.4 °F 93% 30.07 in 10.0 mi ESE 16.1 mph - N/A Rain Light Rain
11:51 AM 39.2 °F 30.2 °F 37.4 °F 93% 30.07 in 10.0 mi ESE 17.3 mph - N/A Rain Light Rain
11:55 AM 39.2 °F 29.8 °F 37.4 °F 93% 30.06 in 10.0 mi ESE 18.4 mph - 0.00 in Rain Light Rain
12:01 PM 39.2 °F 30.8 °F 37.4 °F 93% 30.06 in 10.0 mi SE 15.0 mph - N/A Rain Light Rain
12:55 PM 39.7 °F 30.6 °F 36.5 °F 88% 30.03 in 9.0 mi SE 18.4 mph 29.9 mph 0.02 in Rain Light Rain
1:26 PM 39.2 °F 29.0 °F 35.6 °F 87% 30.01 in 10.0 mi ESE 21.9 mph 27.6 mph N/A   Overcast
1:46 PM 39.2 °F 29.6 °F 35.6 °F 87% 30.00 in 10.0 mi ESE 19.6 mph 29.9 mph N/A Rain Light Rain
1:55 PM 38.5 °F 30.3 °F 35.1 °F 87% 30.01 in 10.0 mi ESE 13.8 mph - 0.01 in   Overcast
2:18 PM 39.2 °F 29.3 °F 35.6 °F 87% 29.98 in 10.0 mi ESE 20.7 mph 26.5 mph N/A   Overcast
2:35 PM 39.2 °F 29.6 °F 35.6 °F 87% 29.97 in 10.0 mi ESE 19.6 mph 27.6 mph N/A   Overcast
2:55 PM 39.0 °F 29.0 °F 35.4 °F 87% 29.96 in 10.0 mi ESE 20.7 mph - N/A   Overcast
3:55 PM 39.0 °F 29.6 °F 36.0 °F 89% 29.94 in 10.0 mi ESE 18.4 mph - N/A   Overcast
4:20 PM 39.2 °F 30.5 °F 35.6 °F 87% 29.92 in 10.0 mi ESE 16.1 mph 21.9 mph N/A Rain Light Rain
4:29 PM 39.2 °F 30.2 °F 35.6 °F 87% 29.92 in 10.0 mi ESE 17.3 mph 21.9 mph N/A   Overcast
4:55 PM 39.0 °F 30.3 °F 36.1 °F 89% 29.91 in 10.0 mi ESE 16.1 mph - 0.00 in   Overcast
5:55 PM 38.8 °F 29.7 °F 35.6 °F 88% 29.90 in 10.0 mi ESE 17.3 mph - N/A   Overcast
6:55 PM 37.9 °F 28.9 °F 34.3 °F 87% 29.91 in 10.0 mi ESE 16.1 mph - N/A   Overcast
7:21 PM 37.4 °F 28.2 °F 33.8 °F 87% 29.91 in 10.0 mi ESE 16.1 mph - N/A   Overcast
7:55 PM 36.9 °F 25.9 °F 34.0 °F 89% 29.91 in 10.0 mi ESE 21.9 mph 27.6 mph N/A   Overcast
8:20 PM 37.4 °F 28.5 °F 33.8 °F 87% 29.90 in 10.0 mi ESE 15.0 mph - N/A   Overcast
8:55 PM 36.3 °F 28.0 °F 34.3 °F 93% 29.88 in 10.0 mi East 12.7 mph 23.0 mph N/A   Overcast
9:24 PM 35.6 °F 26.6 °F 33.8 °F 93% 29.88 in 10.0 mi East 13.8 mph 24.2 mph N/A   Overcast
9:39 PM 35.6 °F 26.2 °F 33.8 °F 93% 29.88 in 10.0 mi East 15.0 mph - N/A   Overcast
9:55 PM 36.3 °F 27.1 °F 32.5 °F 86% 29.88 in 10.0 mi East 15.0 mph - N/A   Overcast
10:24 PM 35.6 °F 26.2 °F 32.0 °F 87% 29.88 in 10.0 mi East 15.0 mph - N/A   Light Drizzle
10:35 PM 35.6 °F 25.9 °F 32.0 °F 87% 29.87 in 10.0 mi East 16.1 mph - N/A   Overcast
10:45 PM 35.6 °F 25.9 °F 32.0 °F 87% 29.86 in 10.0 mi East 16.1 mph - N/A Rain Light Rain
10:55 PM 35.6 °F 26.2 °F 32.2 °F 87% 29.86 in 10.0 mi East 15.0 mph - 0.00 in Rain Light Rain
11:09 PM 35.6 °F 26.2 °F 32.0 °F 87% 29.84 in 10.0 mi East 15.0 mph - N/A   Overcast
11:17 PM 35.6 °F 27.1 °F 32.0 °F 87% 29.83 in 10.0 mi East 12.7 mph - N/A Rain Light Rain
11:29 PM 35.6 °F 27.1 °F 32.0 °F 87% 29.83 in 10.0 mi East 12.7 mph - N/A   Overcast
11:42 PM 35.6 °F 27.1 °F 32.0 °F 87% 29.82 in 10.0 mi East 12.7 mph - N/A   Overcast
11:53 PM 35.6 °F 26.2 °F 32.0 °F 87% 29.80 in 9.0 mi East 15.0 mph - N/A Rain Light Rain
11:55 PM 35.4 °F 26.4 °F 32.2 °F 88% 29.80 in 9.0 mi East 13.8 mph - 0.01 in Rain Light Rain